| time (UTC) | temp F | wind direction | speed MPH | gust MPH | rain 1hr in | rain 24hr in | rain mn in | humidity % | barometer mb |
| 20260505221547 | 66 | 216 | 2.0 | 6.0 | 0.00 | 0.10 | 0.10 | 76 | 1005.7 |
| 20260505220523 | 66 | 166 | 1.0 | 4.0 | 0.00 | 0.10 | 0.10 | 74 | 1005.5 |
| 20260505215519 | 67 | 166 | 2.0 | 3.0 | 0.00 | 0.10 | 0.10 | 73 | 1005.7 |
| 20260505214535 | 67 | 276 | 5.0 | 10.0 | 0.00 | 0.10 | 0.10 | 71 | 1005.8 |
| 20260505213551 | 68 | 276 | 5.0 | 9.0 | 0.00 | 0.10 | 0.10 | 70 | 1006.0 |
| 20260505212528 | 67 | 299 | 2.0 | 4.0 | 0.00 | 0.10 | 0.10 | 78 | 1006.0 |
| 20260505211544 | 67 | 32 | 0.0 | 1.0 | 0.00 | 0.10 | 0.10 | 81 | 1005.5 |
| 20260505210520 | 67 | 170 | 2.0 | 4.0 | 0.00 | 0.10 | 0.10 | 79 | 1004.9 |
| 20260505205516 | 67 | 138 | 2.0 | 6.0 | 0.01 | 0.10 | 0.10 | 81 | 1004.4 |
| 20260505204531 | 66 | 169 | 2.0 | 6.0 | 0.06 | 0.10 | 0.10 | 85 | 1004.6 |
| 20260505203528 | 67 | 0.0 | 0.0 | 0.10 | 0.10 | 0.10 | 84 | 1004.1 | |
| 20260505202525 | 66 | 0.0 | 0.0 | 0.10 | 0.10 | 0.10 | 81 | 1004.0 | |
| 20260505201520 | 65 | 277 | 5.0 | 11.0 | 0.10 | 0.10 | 0.10 | 80 | 1004.9 |
| 20260505200516 | 64 | 276 | 8.0 | 15.0 | 0.10 | 0.10 | 0.10 | 84 | 1004.9 |
| 20260505195532 | 64 | 260 | 9.0 | 19.0 | 0.09 | 0.09 | 0.09 | 83 | 1005.1 |
| 20260505194528 | 68 | 278 | 12.0 | 22.0 | 0.04 | 0.04 | 0.04 | 73 | 1004.3 |
| 20260505193524 | 76 | 256 | 8.0 | 18.0 | 0.00 | 0.00 | 0.00 | 51 | 1003.1 |
| 20260505192520 | 79 | 215 | 8.0 | 17.0 | 0.00 | 0.00 | 0.00 | 45 | 1002.6 |
| 20260505191516 | 79 | 223 | 7.0 | 18.0 | 0.00 | 0.00 | 0.00 | 45 | 1002.5 |
| 20260505190532 | 79 | 222 | 10.0 | 24.0 | 0.00 | 0.00 | 0.00 | 44 | 1002.4 |
| 20260505185528 | 80 | 242 | 7.0 | 17.0 | 0.00 | 0.00 | 0.00 | 44 | 1002.4 |
| 20260505184524 | 80 | 218 | 7.0 | 19.0 | 0.00 | 0.00 | 0.00 | 44 | 1002.5 |
| 20260505183520 | 80 | 214 | 8.0 | 19.0 | 0.00 | 0.00 | 0.00 | 44 | 1002.7 |
| 20260505182516 | 81 | 238 | 7.0 | 14.0 | 0.00 | 0.00 | 0.00 | 44 | 1002.6 |
| 20260505181532 | 80 | 224 | 7.0 | 15.0 | 0.00 | 0.00 | 0.00 | 45 | 1002.7 |
| 20260505180528 | 80 | 216 | 9.0 | 21.0 | 0.00 | 0.00 | 0.00 | 44 | 1003.1 |
| 20260505175524 | 80 | 201 | 10.0 | 19.0 | 0.00 | 0.00 | 0.00 | 44 | 1003.4 |
| 20260505174541 | 80 | 211 | 9.0 | 19.0 | 0.00 | 0.00 | 0.00 | 44 | 1003.6 |
| 20260505173517 | 80 | 216 | 8.0 | 17.0 | 0.00 | 0.00 | 0.00 | 44 | 1003.7 |
| 20260505172533 | 81 | 236 | 8.0 | 17.0 | 0.00 | 0.00 | 0.00 | 45 | 1003.6 |
| 20260505171549 | 80 | 225 | 7.0 | 18.0 | 0.00 | 0.00 | 0.00 | 45 | 1003.7 |
| 20260505170526 | 80 | 217 | 6.0 | 16.0 | 0.00 | 0.00 | 0.00 | 46 | 1003.7 |
| 20260505165542 | 79 | 239 | 9.0 | 22.0 | 0.00 | 0.00 | 0.00 | 47 | 1004.0 |
| 20260505164519 | 78 | 230 | 8.0 | 18.0 | 0.00 | 0.00 | 0.00 | 48 | 1004.2 |
| 20260505163535 | 78 | 215 | 9.0 | 26.0 | 0.00 | 0.00 | 0.00 | 47 | 1004.5 |
| 20260505162531 | 77 | 233 | 9.0 | 17.0 | 0.00 | 0.00 | 0.00 | 48 | 1004.7 |
| 20260505161528 | 77 | 213 | 9.0 | 21.0 | 0.00 | 0.00 | 0.00 | 48 | 1004.9 |
| 20260505160524 | 77 | 230 | 7.0 | 17.0 | 0.00 | 0.00 | 0.00 | 50 | 1004.9 |
| 20260505152527 | 74 | 235 | 8.0 | 23.0 | 0.00 | 0.00 | 0.00 | 52 | 1005.5 |
| 20260505151523 | 73 | 230 | 6.0 | 11.0 | 0.00 | 0.00 | 0.00 | 55 | 1005.5 |
| 20260505150519 | 72 | 220 | 4.0 | 13.0 | 0.00 | 0.00 | 0.00 | 56 | 1005.5 |
| 20260505140535 | 67 | 213 | 2.0 | 7.0 | 0.00 | 0.00 | 0.00 | 62 | 1006.8 |
| 20260505124523 | 65 | 198 | 1.0 | 3.0 | 0.00 | 0.00 | 0.00 | 68 | 1006.9 |
| 20260505123539 | 64 | 224 | 3.0 | 7.0 | 0.00 | 0.00 | 0.00 | 67 | 1006.9 |
| 20260505122515 | 64 | 227 | 5.0 | 13.0 | 0.00 | 0.00 | 0.00 | 66 | 1007.0 |
| 20260505121532 | 64 | 258 | 4.0 | 7.0 | 0.00 | 0.00 | 0.00 | 66 | 1006.7 |
| 20260505120527 | 63 | 262 | 3.0 | 7.0 | 0.00 | 0.00 | 0.00 | 65 | 1006.6 |
| 20260505115523 | 63 | 265 | 4.0 | 7.0 | 0.00 | 0.00 | 0.00 | 65 | 1006.7 |
| 20260505114518 | 61 | 230 | 4.0 | 8.0 | 0.00 | 0.00 | 0.00 | 67 | 1006.7 |
| 20260505113515 | 61 | 266 | 4.0 | 7.0 | 0.00 | 0.00 | 0.00 | 66 | 1006.8 |
| 20260505112551 | 61 | 244 | 4.0 | 8.0 | 0.00 | 0.00 | 0.00 | 65 | 1006.9 |
| 20260505111527 | 61 | 227 | 5.0 | 15.0 | 0.00 | 0.00 | 0.00 | 63 | 1006.8 |
| 20260505110524 | 61 | 224 | 2.0 | 6.0 | 0.00 | 0.00 | 0.00 | 62 | 1006.6 |
| 20260505101525 | 57 | 0.0 | 0.0 | 0.00 | 0.00 | 0.00 | 68 | 1006.3 | |
| 20260505100543 | 57 | 0.0 | 0.0 | 0.00 | 0.00 | 0.00 | 67 | 1006.3 | |
| 20260505095537 | 56 | 0.0 | 0.0 | 0.00 | 0.00 | 0.00 | 68 | 1006.1 | |
| 20260505094533 | 57 | 0.0 | 0.0 | 0.00 | 0.00 | 0.00 | 67 | 1006.2 | |
| 20260505093528 | 58 | 0.0 | 0.0 | 0.00 | 0.00 | 0.00 | 65 | 1006.4 | |
| 20260505092525 | 58 | 226 | 0.0 | 1.0 | 0.00 | 0.00 | 0.00 | 64 | 1006.4 |
| 20260505091521 | 58 | 0.0 | 0.0 | 0.00 | 0.00 | 0.00 | 64 | 1006.3 | |
| 20260505090518 | 58 | 0.0 | 0.0 | 0.00 | 0.00 | 0.00 | 63 | 1006.2 | |
| 20260505085534 | 58 | 218 | 0.0 | 3.0 | 0.00 | 0.00 | 0.00 | 64 | 1006.3 |
| 20260505084531 | 58 | 0.0 | 0.0 | 0.00 | 0.00 | 0.00 | 64 | 1006.4 | |
| 20260505083546 | 58 | 0.0 | 0.0 | 0.00 | 0.00 | 0.00 | 63 | 1006.5 | |
| 20260505082522 | 58 | 233 | 0.0 | 3.0 | 0.00 | 0.00 | 0.00 | 63 | 1006.5 |
| 20260505081518 | 58 | 241 | 1.0 | 3.0 | 0.00 | 0.00 | 0.00 | 63 | 1006.6 |
| 20260505080615 | 59 | 275 | 0.0 | 3.0 | 0.00 | 0.00 | 0.00 | 62 | 1006.4 |
| 20260505075530 | 59 | 314 | 0.0 | 1.0 | 0.00 | 0.00 | 0.00 | 62 | 1006.5 |
| 20260505074527 | 58 | 0.0 | 0.0 | 0.00 | 0.00 | 0.00 | 62 | 1006.4 | |
| 20260505073523 | 59 | 0.0 | 0.0 | 0.00 | 0.00 | 0.00 | 61 | 1006.3 | |
| 20260505072540 | 59 | 261 | 0.0 | 3.0 | 0.00 | 0.00 | 0.00 | 62 | 1006.3 |
| 20260505071516 | 59 | 0.0 | 0.0 | 0.00 | 0.00 | 0.00 | 62 | 1006.3 | |
| 20260505070532 | 59 | 0.0 | 0.0 | 0.00 | 0.00 | 0.00 | 62 | 1006.4 | |
| 20260505065548 | 59 | 229 | 1.0 | 6.0 | 0.00 | 0.00 | 0.00 | 61 | 1006.5 |
| 20260505064525 | 59 | 229 | 0.0 | 1.0 | 0.00 | 0.00 | 0.00 | 62 | 1006.6 |
| 20260505063522 | 59 | 219 | 2.0 | 4.0 | 0.00 | 0.00 | 0.00 | 62 | 1006.4 |
| 20260505062518 | 59 | 228 | 0.0 | 2.0 | 0.00 | 0.00 | 0.00 | 62 | 1006.5 |
| 20260505061533 | 58 | 146 | 0.0 | 2.0 | 0.00 | 0.00 | 0.00 | 62 | 1006.4 |
| 20260505060532 | 58 | 216 | 0.0 | 1.0 | 0.00 | 0.00 | 0.00 | 62 | 1006.5 |
| 20260505055527 | 58 | 0.0 | 0.0 | 0.00 | 0.00 | 0.00 | 61 | 1006.4 | |
| 20260505054522 | 59 | 196 | 0.0 | 4.0 | 0.00 | 0.00 | 0.00 | 60 | 1006.6 |
| 20260505053537 | 58 | 213 | 1.0 | 7.0 | 0.00 | 0.00 | 0.00 | 61 | 1006.5 |
| 20260505052554 | 58 | 0.0 | 0.0 | 0.00 | 0.00 | 0.00 | 61 | 1006.5 | |
| 20260505051549 | 59 | 225 | 0.0 | 2.0 | 0.00 | 0.00 | 0.00 | 60 | 1006.5 |
| 20260505050544 | 59 | 0.0 | 0.0 | 0.00 | 0.00 | 0.00 | 60 | 1006.4 | |
| 20260505041532 | 59 | 231 | 0.0 | 2.0 | 0.00 | 0.00 | 0.00 | 60 | 1006.7 |
| 20260505040528 | 58 | 213 | 1.0 | 4.0 | 0.00 | 0.00 | 0.00 | 60 | 1006.6 |
| 20260505035524 | 58 | 252 | 0.0 | 1.0 | 0.00 | 0.00 | 0.00 | 60 | 1006.5 |
| 20260505034540 | 57 | 0.0 | 0.0 | 0.00 | 0.00 | 0.00 | 61 | 1006.4 | |
| 20260505033516 | 57 | 249 | 1.0 | 2.0 | 0.00 | 0.00 | 0.00 | 62 | 1006.4 |
| 20260505032533 | 57 | 241 | 0.0 | 4.0 | 0.00 | 0.00 | 0.00 | 61 | 1006.4 |
| 20260505031529 | 56 | 234 | 1.0 | 4.0 | 0.00 | 0.00 | 0.00 | 63 | 1006.3 |
| 20260505030525 | 54 | 213 | 0.0 | 1.0 | 0.00 | 0.00 | 0.00 | 69 | 1006.4 |
| 20260505025521 | 52 | 238 | 0.0 | 4.0 | 0.00 | 0.00 | 0.00 | 75 | 1006.4 |
| 20260505024517 | 51 | 0.0 | 0.0 | 0.00 | 0.00 | 0.00 | 78 | 1006.5 | |
| 20260505023533 | 51 | 0.0 | 0.0 | 0.00 | 0.00 | 0.00 | 79 | 1006.5 | |
| 20260505022529 | 51 | 0.0 | 0.0 | 0.00 | 0.00 | 0.00 | 80 | 1006.7 | |
| 20260505021525 | 50 | 0.0 | 0.0 | 0.00 | 0.00 | 0.00 | 83 | 1006.8 | |
| 20260505020541 | 51 | 0.0 | 0.0 | 0.00 | 0.00 | 0.00 | 82 | 1006.7 | |
| 20260505015517 | 51 | 0.0 | 0.0 | 0.00 | 0.00 | 0.00 | 81 | 1006.8 | |
| 20260505014554 | 52 | 0.0 | 0.0 | 0.00 | 0.00 | 0.00 | 79 | 1006.6 | |
| 20260505013530 | 54 | 0.0 | 0.0 | 0.00 | 0.00 | 0.00 | 76 | 1006.5 | |
| 20260505012546 | 54 | 203 | 0.0 | 1.0 | 0.00 | 0.00 | 0.00 | 73 | 1006.5 |
| 20260505011522 | 55 | 0.0 | 0.0 | 0.00 | 0.00 | 0.00 | 71 | 1006.5 | |
| 20260505010538 | 54 | 0.0 | 0.0 | 0.00 | 0.00 | 0.00 | 74 | 1006.5 | |
| 20260505005535 | 55 | 0.0 | 0.0 | 0.00 | 0.00 | 0.00 | 72 | 1006.4 | |
| 20260505004530 | 56 | 0.0 | 0.0 | 0.00 | 0.00 | 0.00 | 69 | 1006.2 | |
| 20260505003526 | 58 | 0.0 | 0.0 | 0.00 | 0.00 | 0.00 | 63 | 1006.1 | |
| 20260505002523 | 59 | 0.0 | 0.0 | 0.00 | 0.00 | 0.00 | 64 | 1006.1 | |
| 20260505001519 | 60 | 0.0 | 0.0 | 0.00 | 0.00 | 0.00 | 60 | 1006.0 | |
| 20260505000535 | 61 | 0.0 | 0.0 | 0.00 | 0.00 | 0.00 | 58 | 1005.9 | |
| 20260504235531 | 62 | 0.0 | 0.0 | 0.00 | 0.00 | 0.00 | 58 | 1005.7 | |
| 20260504234526 | 65 | 0.0 | 0.0 | 0.00 | 0.00 | 0.00 | 53 | 1005.7 | |
| 20260504233523 | 67 | 0.0 | 0.0 | 0.00 | 0.00 | 0.00 | 48 | 1005.6 | |
| 20260504232518 | 68 | 222 | 1.0 | 4.0 | 0.00 | 0.00 | 0.00 | 47 | 1005.5 |
| 20260504231534 | 68 | 257 | 0.0 | 3.0 | 0.00 | 0.00 | 0.00 | 46 | 1005.4 |
| 20260504230531 | 69 | 232 | 2.0 | 4.0 | 0.00 | 0.00 | 0.00 | 45 | 1005.3 |
| 20260504225527 | 69 | 226 | 2.0 | 7.0 | 0.00 | 0.00 | 0.00 | 44 | 1005.2 |
| 20260504224543 | 69 | 221 | 2.0 | 4.0 | 0.00 | 0.00 | 0.00 | 45 | 1005.1 |
| 20260504223519 | 70 | 236 | 2.0 | 6.0 | 0.00 | 0.00 | 0.00 | 44 | 1005.0 |
| 20260504222535 | 71 | 248 | 4.0 | 10.0 | 0.00 | 0.00 | 0.00 | 42 | 1005.0 |